Home   Weather   Riverside   Past weeks
Flag for USA

Past Weather in Riverside, Ohio, USA — Yesterday and Last 2 Weeks

Now
50 °F

Sunny.


Feels Like: 50 °F
Forecast: 74 / 38 °F
Wind: No wind

Location: Dayton / Wright-Patterson Air Force Base

Current Time: Oct 15, 2019 at 10:45:15 am

Latest Report: Oct 15, 2019 at 9:56 am


Visibility: 10 mi

Pressure: 30.10 "Hg

Humidity: 68%

Dew Point: 40 °F

Location of RiversideLocation

Past Weather in Riverside — Graph

°F

Riverside Temperature Yesterday

Maximum temperature yesterday: 64 °F (at 3:56 pm)
Minimum temperature yesterday: 37 °F (at 7:56 am)
Average temperature yesterday: 51 °F

High & Low Weather Summary for the Past Weeks

 TemperatureHumidityPressure
High93 °F (Oct 2, 3:56 pm)100% (Oct 1, 7:36 am)30.31 "Hg (Oct 1, 7:36 am)
Low36 °F (Oct 12, 7:56 am)27% (Oct 13, 3:56 pm)29.88 "Hg (Oct 2, 4:56 pm)
Average61 °F68%30.09 "Hg
* Reported Sep 30 9:56 am — Oct 15 8:56 am, Riverside. Weather by CustomWeather, © 2019

Note: Actual official high and low records may vary slightly from our data, if they occured in-between our weather recording intervals... More about our weather records

Advertising

Riverside Weather History for the Previous 24 Hours

Scroll right to see more
 ConditionsComfort  
Time TempWeatherWind HumidityBarometerVisibility
8:56 am
Tue, Oct 15
40 °FSunny.3 mph88%30.11 "Hg10 mi
7:56 am37 °FSunny.No wind84%30.12 "Hg10 mi
6:56 am38 °FClear.No wind88%30.11 "Hg10 mi
5:56 am37 °FClear.No wind87%30.11 "Hg10 mi
4:56 am38 °FClear.3 mph88%30.11 "Hg10 mi
3:56 am38 °FClear.No wind86%30.11 "Hg10 mi
2:56 am41 °FClear.No wind87%30.13 "Hg10 mi
1:56 am41 °FClear.No wind85%30.13 "Hg10 mi
12:56 am41 °FClear.No wind84%30.12 "Hg10 mi
11:56 pm
Mon, Oct 14
44 °FClear.No wind78%30.12 "Hg10 mi
10:56 pm44 °FClear.No wind77%30.12 "Hg10 mi
9:56 pm47 °FClear.No wind74%30.11 "Hg10 mi
8:56 pm49 °FClear.No wind67%30.11 "Hg10 mi
7:56 pm53 °FClear.No wind58%30.10 "Hg10 mi
6:56 pm59 °FSunny.6 mph41%30.09 "Hg10 mi
5:56 pm63 °FSunny.9 mph33%30.07 "Hg10 mi
4:56 pm64 °FSunny.12 mph32%30.07 "Hg10 mi
3:56 pm64 °FSunny.10 mph34%30.07 "Hg10 mi
2:56 pm63 °FSunny.9 mph36%30.07 "Hg10 mi
1:56 pm62 °FSunny.8 mph37%30.08 "Hg10 mi
12:56 pm60 °FSunny.10 mph40%30.10 "Hg10 mi
11:56 am57 °FSunny.8 mph44%30.09 "Hg10 mi
10:56 am54 °FSunny.3 mph52%30.10 "Hg10 mi
Weather by CustomWeather, © 2019

See weather overview